#timestamp,LO_Frequency,Hit,StdDev 
1556834415.9,286047002.4,N
1556834435.7,286047000.0,N
1556834455.6,286047001.9,N
1556834475.4,286047000.3,N
1556834495.2,286046998.8,N
1556834515.1,286046998.9,N
1556834516.0,286046998.9,N
1556834535.8,286046998.9,N
1556834555.7,286046998.6,N
1556834575.5,286046998.6,N
1556834595.3,286046998.3,N
1556834615.2,286046998.2,N
1556834635.0,286046998.5,N
1556834635.9,286046998.5,N
1556834655.8,286046998.7,N
1556834675.6,286046998.3,N
1556834695.4,286047002.5,N
1556834715.3,286047003.8,N
1556834735.1,286047007.6,Y
1556834755.8,286047004.5,P
1556834775.7,286047004.9,N
1556834795.5,286047003.4,N
1556834815.4,286047004.7,N
1556834835.2,286047007.1,Y
1556834855.0,286047004.2,P
1556834855.9,286047004.2,P
1556834875.8,286047005.6,P
1556834895.6,286047003.6,Y
1556834915.5,286047000.0,P
1556834935.3,286047000.7,N
1556834955.1,286047000.3,N
1556834975.9,286047002.1,N
1556834995.7,286046999.7,N
1556835015.5,286046998.2,N
1556835035.4,286046999.3,N
1556835055.2,286047001.2,N
1556835075.0,286046998.2,N
1556835076.0,286046998.2,N
1556835095.8,286046999.0,N
1556835115.6,286046997.0,N
1556835135.5,286046996.8,N
1556835155.3,286046998.7,N
1556835175.1,286046999.3,N
1556835195.9,286046999.1,N
1556835215.7,286047001.0,N
1556835235.6,286046998.3,N
1556835255.4,286047001.2,N
1556835275.2,286046998.4,N
1556835295.1,286047001.1,N
1556835296.0,286047001.1,N
1556835315.8,286047002.6,N
1556835335.6,286047002.5,N
1556835355.5,286046999.8,N
1556835375.3,286047000.3,N
1556835395.2,286047002.7,N
1556835415.9,286047001.5,N
1556835435.7,286047002.5,N
1556835455.6,286047004.2,N
1556835475.4,286047003.0,N
1556835495.2,286047005.8,Y
1556835515.1,286047004.7,P
1556835516.0,286047004.7,N
1556835535.8,286047008.9,P
1556835555.7,286047006.4,N
1556835575.5,286047009.0,Y
1556835595.3,286047003.7,P
1556835615.2,286047002.0,P
1556835635.0,286047001.3,N
1556835635.9,286047001.3,N
1556835655.7,286047001.7,N
1556835675.6,286047002.7,N
1556835695.4,286047001.5,N
1556835715.3,286047003.1,N
1556835735.1,286047005.8,Y
1556835736.0,286047005.8,P
1556835755.8,286047001.7,N
1556835775.7,286047001.8,N
1556835825.5,286047003.1,E
1556835835.5,286047001.7,N
1556835855.3,286047001.6,P
1556835875.1,286047002.3,P
1556835895.9,286047002.8,Y
1556835915.7,286046999.3,P
1556835935.5,286046998.7,N
1556835955.4,286046998.3,N
1556835975.2,286046999.1,N
1556835995.1,286046998.3,N
1556835996.0,286046998.3,N
1556836015.8,286046998.4,N
1556836035.6,286046998.1,N
1556836055.5,286047001.0,N
1556836075.3,286047000.8,N
1556836095.1,286047001.2,N
1556836115.9,286047000.3,N
1556836135.7,286047000.2,N
1556836155.6,286047000.6,N
1556836175.4,286046999.9,N
1556836195.2,286047001.5,N
1556836215.1,286047004.3,Y
1556836216.0,286047004.3,P
1556836235.8,286047001.4,N
1556836255.6,286047001.3,N
1556836275.5,286047003.8,N
1556836295.3,286047003.6,N
1556836315.2,286047003.4,N
1556836335.9,286047003.6,N
1556836355.7,286047003.6,N
1556836375.6,286047003.7,N
1556836395.4,286047003.5,N
1556836415.3,286047005.9,Y
1556836435.1,286047002.3,P
1556836436.0,286047002.3,P
1556836455.8,286047000.0,N
1556836475.7,286047000.6,N
1556836495.5,286047002.8,N
1556836515.3,286047002.3,N
1556836535.2,286047003.9,Y
1556836555.0,286047000.1,P
1556836555.9,286047000.1,N
1556836575.8,286047001.6,N
1556836595.6,286047004.4,Y
1556836615.4,286047001.4,P
1556836635.3,286047004.4,P
1556836655.1,286047001.4,N
1556836675.8,286047001.4,N
1556836695.7,286047001.5,N
1556836715.5,286047002.2,N
1556836735.4,286047004.1,Y
1556836755.2,286047002.2,P
1556836775.0,286047001.5,P
1556836775.9,286047001.5,P
1556836795.8,286047004.3,Y
1556836815.6,286046999.7,P
1556836835.5,286047001.5,N
1556836855.3,286046999.7,N
1556836875.1,286047000.1,N
1556836895.9,286046998.1,N
1556836915.7,286047000.0,N
1556836935.5,286046999.7,N
1556836955.4,286047000.1,N
1556836975.2,286047002.8,N
1556836995.0,286047002.8,N
1556836996.0,286047002.8,N
1556837015.8,286047002.6,N
1556837035.6,286047002.5,N
1556837055.5,286047004.3,N
1556837075.3,286047004.4,N
1556837095.1,286047003.7,N
1556837115.9,286047003.5,N
1556837135.7,286047003.0,N
1556837155.5,286047003.3,N
1556837175.4,286047007.6,Y
1556837195.2,286047005.9,P
1556837215.1,286047006.0,N
1556837216.0,286047006.0,P
1556837235.8,286047002.9,N
1556837255.6,286047007.2,Y
1556837275.5,286047002.7,P
1556837295.3,286047000.5,N
1556837315.2,286046999.8,N
1556837335.9,286047002.8,N
1556837355.7,286047000.0,N
1556837375.6,286047000.3,N
1556837395.4,286047002.0,N
1556837415.2,286047001.3,N
1556837435.1,286047001.5,N
1556837436.0,286047001.5,N
1556837455.8,286047004.2,Y
1556837475.7,286047000.2,P
1556837495.5,286047002.5,P
1556837515.3,286047004.0,P
1556837535.2,286047004.1,N
1556837555.0,286047003.0,N
1556837555.9,286047003.0,N
1556837575.7,286047005.4,Y
1556837595.6,286047002.0,P
1556837615.4,286047001.8,P
1556837635.3,286047004.2,P
1556837655.1,286047001.8,N
1556837656.0,286047001.8,N
1556837675.8,286047001.4,N
1556837695.7,286047001.3,N
1556837715.5,286047003.5,Y
1556837735.4,286047002.2,P
1556837755.2,286047000.5,P
1556837775.0,286047002.6,P
1556837775.9,286047002.6,Y
1556837795.8,286047000.8,P
1556837815.6,286047001.0,N
1556837835.4,286047002.1,P
1556837855.3,286047002.6,Y
1556837875.1,286046998.9,P
1556837895.9,286046998.5,N
1556837915.7,286046998.5,N
1556837935.5,286047001.1,N
1556837955.4,286046998.5,N
1556837975.2,286046998.3,N
1556837995.0,286046998.5,N
1556837995.9,286046998.5,N
